Location: Unspecified
(0.0000°N, 0.0000°E)
Time: 13:55:10
(UTC+02:00)

ISS - Visible Passes

Search period start: 28 May 2015 00:00
Search period end: 07 June 2015 00:00
Orbit: 399 x 404 km, 51.6° (Epoch: 28 May)

Date Brightness Start Highest point End Pass type
(mag) Time Alt. Az. Time Alt. Az. Time Alt. Az.
28 May -1.2 21:04:44 10° S 21:05:24 14° S 21:05:24 14° S visible
29 May -0.9 21:47:53 10° WSW 21:50:33 23° NW 21:51:06 22° NW visible
30 May -3.1 20:54:07 10° SW 20:57:20 72° NW 21:00:32 10° NNE visible
01 Jun -0.1 20:44:48 10° W 20:47:09 18° NW 20:49:25 10° N visible
03 Jun -3.3 07:23:58 10° NNW 07:27:12 83° NE 07:30:29 10° SE visible
04 Jun -1.0 06:31:12 10° N 06:33:57 26° NE 06:36:46 10° ESE visible
05 Jun -2.2 07:14:14 10° WNW 07:16:56 24° SW 07:19:37 10° S visible
06 Jun -0.9 06:26:19 14° SSE 06:26:19 14° SSE 06:26:54 10° SSE visible
